Three Rivers, MI

1:06 AM EST on February 25, 2018 (GMT -0500)
Three Rivers Municipal-Haines

Weather History for KHAI - January, 2007

Change the Weather History Date:

Saturday, January 6, 2007

  Actual Average Record
Temperature  
Mean Temperature 40 °F -  
Max Temperature 44 °F 31 °F 50 °F (1987)
Min Temperature 35 °F 15 °F -13 °F (2014)
Degree Days  
Heating Degree Days 26    
Moisture  
Dew Point 37 °F    
Average Humidity 87    
Maximum Humidity 100    
Minimum Humidity 70    
Precipitation  
Precipitation 0.00 in - - ()
Sea Level Pressure  
Sea Level Pressure 29.84 in    
Wind  
Wind Speed 8 mph (West)    
Max Wind Speed 17 mph    
Max Gust Speed 23 mph    
Visibility 7 miles    
Events Rain    
Averages and records for this station are not official NWS values.
T = Trace of Precipitation, MM = Missing Value Source: NWS Daily Summary

Daily Weather History Graph

Daily Weather History Graph

Search for Another Location

Airport or City:

Trip Planner

Search our weather history database for the weather conditions in past years. The results will help you decide how hot, cold, wet, or windy it might be!

Date:

Astronomy

Jan. 06, 2007 Rise Set
Actual Time 8:10 AM EST 5:26 PM EST
Civil Twilight 7:39 AM EST 5:57 PM EST
Nautical Twilight 7:04 AM EST 6:32 PM EST
Astronomical Twilight 6:30 AM EST 7:06 PM EST
Moon 8:48 PM EST (1/6) 10:20 AM EST (1/6)
Length of Visible Light 10h 18m
Length of Day
9h 15m
Waning Gibbous, 90% of the Moon is Illuminated
Jan 6
Waning Gibbous
Jan 11
Last Quarter
Jan 18
New
Jan 25
First Quarter
Feb 2
Full

Hourly Weather History & Observations

Time (EST) Temp. Windchill Dew Point Humidity Pressure Visibility Wind Dir Wind Speed Gust Speed Precip Events Conditions
12:16 AM 44.6 °F 43.1 °F 44.6 °F 100% 29.65 in 1.8 mi West 3.5 mph - N/A   Drizzle
12:36 AM 44.6 °F 43.1 °F 44.6 °F 100% 29.65 in 1.8 mi West 3.5 mph - N/A Rain Heavy Rain
12:56 AM 44.6 °F 41.4 °F 44.6 °F 100% 29.65 in 2.0 mi West 5.8 mph - N/A   Light Drizzle
1:16 AM 44.6 °F - 44.6 °F 100% 29.64 in 2.0 mi Calm Calm - N/A   Overcast
1:36 AM 44.6 °F 43.1 °F 44.6 °F 100% 29.64 in 2.5 mi WSW 3.5 mph - N/A   Overcast
1:56 AM 44.6 °F 42.2 °F 44.6 °F 100% 29.65 in 2.5 mi WSW 4.6 mph - N/A   Overcast
2:16 AM 44.6 °F 43.1 °F 44.6 °F 100% 29.65 in 1.8 mi WSW 3.5 mph - N/A   Overcast
2:37 AM 44.6 °F 42.2 °F 44.6 °F 100% 29.65 in 1.5 mi West 4.6 mph - N/A Rain Light Rain
2:56 AM 44.6 °F 41.4 °F 44.6 °F 100% 29.66 in 1.8 mi West 5.8 mph - N/A   Overcast
3:16 AM 44.6 °F 40.2 °F 44.6 °F 100% 29.67 in 2.0 mi WNW 8.1 mph - N/A Rain Light Rain
3:36 AM 42.8 °F 37.5 °F 42.8 °F 100% 29.67 in 2.0 mi WNW 9.2 mph - N/A Rain Light Rain
3:56 AM 42.8 °F 38.6 °F 41.0 °F 93% 29.67 in 2.5 mi WNW 6.9 mph - N/A   Overcast
4:16 AM 42.8 °F 38.0 °F 41.0 °F 93% 29.69 in 3.0 mi WNW 8.1 mph - N/A Rain Light Rain
4:36 AM 42.8 °F 38.6 °F 41.0 °F 93% 29.69 in 3.0 mi WNW 6.9 mph - N/A   Drizzle
4:56 AM 41.0 °F 35.2 °F 41.0 °F 100% 29.70 in 3.0 mi WNW 9.2 mph - N/A Rain Light Rain
5:16 AM 41.0 °F 35.8 °F 39.2 °F 93% 29.70 in 3.0 mi WNW 8.1 mph - N/A Rain Light Rain
5:36 AM 41.0 °F 36.4 °F 39.2 °F 93% 29.70 in 4.0 mi WNW 6.9 mph - N/A Rain Light Rain
6:16 AM 41.0 °F 35.2 °F 39.2 °F 93% 29.73 in 4.0 mi WNW 9.2 mph - N/A Rain Light Rain
6:36 AM 39.2 °F 31.6 °F 39.2 °F 100% 29.75 in 4.0 mi West 12.7 mph - N/A   Overcast
6:56 AM 39.2 °F 31.6 °F 39.2 °F 100% 29.75 in 3.0 mi WNW 12.7 mph 17.3 mph N/A Rain Rain
7:16 AM 39.2 °F 32.5 °F 37.4 °F 93% 29.76 in 5.0 mi WNW 10.4 mph - N/A   Overcast
7:36 AM 39.2 °F 33.0 °F 37.4 °F 93% 29.78 in 7.0 mi WNW 9.2 mph 16.1 mph N/A   Overcast
7:56 AM 39.2 °F 33.0 °F 37.4 °F 93% 29.80 in 7.0 mi WNW 9.2 mph - N/A   Overcast
8:16 AM 39.2 °F 33.6 °F 37.4 °F 93% 29.81 in 7.0 mi WNW 8.1 mph - N/A   Overcast
8:36 AM 39.2 °F 32.0 °F 37.4 °F 93% 29.82 in 7.0 mi West 11.5 mph - N/A   Overcast
8:56 AM 39.2 °F 33.0 °F 37.4 °F 93% 29.83 in 7.0 mi West 9.2 mph - N/A   Overcast
9:16 AM 39.2 °F 32.5 °F 37.4 °F 93% 29.84 in 7.0 mi West 10.4 mph - N/A   Overcast
9:37 AM 39.2 °F 32.5 °F 37.4 °F 93% 29.86 in 7.0 mi West 10.4 mph - N/A   Overcast
9:56 AM 39.2 °F 30.8 °F 35.6 °F 87% 29.88 in 7.0 mi West 15.0 mph 19.6 mph N/A   Overcast
10:16 AM 39.2 °F 32.5 °F 35.6 °F 87% 29.89 in 10.0 mi West 10.4 mph - N/A   Overcast
10:36 AM 39.2 °F 32.5 °F 35.6 °F 87% 29.90 in 7.0 mi West 10.4 mph - N/A   Overcast
10:56 AM 39.2 °F 30.8 °F 35.6 °F 87% 29.90 in 10.0 mi West 15.0 mph 20.7 mph N/A   Overcast
11:16 AM 39.2 °F 31.2 °F 35.6 °F 87% 29.92 in 10.0 mi West 13.8 mph - N/A   Overcast
11:36 AM 39.2 °F 30.2 °F 35.6 °F 87% 29.92 in 10.0 mi West 17.3 mph 23.0 mph N/A   Overcast
11:56 AM 39.2 °F 31.2 °F 33.8 °F 81% 29.93 in 10.0 mi West 13.8 mph - N/A   Overcast
12:16 PM 39.2 °F 30.8 °F 33.8 °F 81% 29.92 in 10.0 mi West 15.0 mph 21.9 mph N/A   Overcast
12:36 PM 39.2 °F 31.6 °F 33.8 °F 81% 29.92 in 10.0 mi West 12.7 mph 20.7 mph N/A   Overcast
12:56 PM 39.2 °F 30.5 °F 32.0 °F 75% 29.92 in 10.0 mi West 16.1 mph 21.9 mph N/A   Overcast
1:16 PM 39.2 °F 30.5 °F 32.0 °F 75% 29.92 in 10.0 mi West 16.1 mph 20.7 mph N/A   Overcast
1:36 PM 39.2 °F 32.0 °F 32.0 °F 75% 29.92 in 10.0 mi West 11.5 mph - N/A   Overcast
1:57 PM 41.0 °F 34.3 °F 32.0 °F 70% 29.93 in 10.0 mi West 11.5 mph 18.4 mph N/A   Overcast
2:16 PM 39.2 °F 31.2 °F 32.0 °F 75% 29.94 in 10.0 mi West 13.8 mph - N/A   Mostly Cloudy
2:36 PM 41.0 °F 34.3 °F 32.0 °F 70% 29.95 in 10.0 mi WNW 11.5 mph - N/A   Overcast
3:16 PM 39.2 °F 30.5 °F 30.2 °F 70% 29.97 in 10.0 mi West 16.1 mph 21.9 mph N/A   Overcast
3:36 PM 39.2 °F 32.0 °F 30.2 °F 70% 29.98 in 10.0 mi West 11.5 mph - N/A   Mostly Cloudy
3:56 PM 39.2 °F 32.0 °F 30.2 °F 70% 30.00 in 10.0 mi West 11.5 mph 17.3 mph N/A   Mostly Cloudy
4:17 PM 39.2 °F 31.6 °F 30.2 °F 70% 30.01 in 10.0 mi West 12.7 mph - N/A   Mostly Cloudy
4:36 PM 39.2 °F 32.5 °F 30.2 °F 70% 30.02 in 10.0 mi West 10.4 mph - N/A   Mostly Cloudy
4:57 PM 39.2 °F 35.0 °F 30.2 °F 70% 30.03 in 10.0 mi WSW 5.8 mph - N/A   Mostly Cloudy
5:16 PM 37.4 °F 30.8 °F 30.2 °F 75% 30.04 in 10.0 mi West 9.2 mph - N/A   Scattered Clouds
5:36 PM 35.6 °F 29.9 °F 30.2 °F 81% 30.04 in 10.0 mi West 6.9 mph - N/A   Clear
5:56 PM 35.6 °F 31.7 °F 30.2 °F 81% 30.05 in 10.0 mi WNW 4.6 mph - N/A   Clear
6:16 PM 35.6 °F 32.8 °F 30.2 °F 81% 30.07 in 10.0 mi WSW 3.5 mph - N/A   Clear
6:36 PM 35.6 °F 31.7 °F 30.2 °F 81% 30.08 in 10.0 mi West 4.6 mph - N/A   Clear
6:56 PM 35.6 °F 31.7 °F 30.2 °F 81% 30.09 in 10.0 mi West 4.6 mph - N/A   Clear
7:16 PM 35.6 °F 30.7 °F 30.2 °F 81% 30.10 in 7.0 mi West 5.8 mph - N/A   Clear
7:36 PM 33.8 °F 29.6 °F 30.2 °F 87% 30.11 in 7.0 mi WSW 4.6 mph - N/A   Clear
7:56 PM 35.6 °F - 30.2 °F 81% 30.12 in 7.0 mi Calm Calm - N/A   Scattered Clouds
8:16 PM 33.8 °F 30.8 °F 30.2 °F 87% 30.12 in 7.0 mi SW 3.5 mph - N/A   Scattered Clouds
8:36 PM 33.8 °F - 30.2 °F 87% 30.14 in 5.0 mi Calm Calm - N/A   Clear
8:56 PM 33.8 °F - 30.2 °F 87% 30.14 in 5.0 mi Calm Calm - N/A   Clear
9:16 PM 32.0 °F - 30.2 °F 93% 30.14 in 5.0 mi Calm Calm - N/A   Clear
9:37 PM 32.0 °F - 30.2 °F 93% 30.15 in 3.0 mi Calm Calm - N/A   Clear
9:56 PM 32.0 °F - 30.2 °F 93% 30.15 in 4.0 mi Calm Calm - N/A   Clear
10:16 PM 30.2 °F - 30.2 °F 100% 30.16 in 3.0 mi Calm Calm - N/A   Clear
10:36 PM 30.2 °F 26.7 °F 30.2 °F 100% 30.17 in 2.5 mi South 3.5 mph - N/A   Clear
10:56 PM 30.2 °F 26.7 °F 30.2 °F 100% 30.17 in 3.0 mi South 3.5 mph - N/A   Clear
11:16 PM 30.2 °F 25.4 °F 30.2 °F 100% 30.17 in 2.5 mi South 4.6 mph - N/A   Clear
11:36 PM 30.2 °F 26.7 °F 28.4 °F 93% 30.17 in 3.0 mi South 3.5 mph - N/A   Clear
11:56 PM 30.2 °F 26.7 °F 30.2 °F 100% 30.17 in 3.0 mi South 3.5 mph - N/A   Clear